BWA8004 TNCC-TTPP

Flight info

Callsign BWA8004
Flight time 1h 5m
Altitude 37000
Route BONAX1K BONAX UL219 MEGIR DCT ANELU DCT LEXOR DCT TALUS
Aircraft B38M/M-SDE1FGHILORVWXY/HB1

Departure

Time 2026-05-08 01:37
Airport Hato International Airport (TNCC)

Arrival

Time 2026-05-08 02:43
Airport Piarco International Airport (TTPP)
Time Latitude Longitude Altitude Speed Heading
2026-05-08 00:50 12.18531 -68.95574 46 ft 0 kts 192°
2026-05-08 01:21 12.18544 -68.95572 18 ft 3 kts 192°
2026-05-08 01:21 12.18562 -68.95567 44 ft 3 kts 192°
2026-05-08 01:21 12.18581 -68.95563 42 ft 3 kts 192°
2026-05-08 01:21 12.18599 -68.95559 43 ft 3 kts 192°
2026-05-08 01:22 12.18606 -68.95558 44 ft 0 kts 192°
2026-05-08 01:27 12.18599 -68.95559 45 ft 2 kts 192°
2026-05-08 01:28 12.18595 -68.95560 43 ft 0 kts 192°
2026-05-08 01:30 12.18592 -68.95561 44 ft 3 kts 192°
2026-05-08 01:30 12.18590 -68.95561 44 ft 0 kts 192°
2026-05-08 01:31 12.18581 -68.95572 44 ft 6 kts 247°
2026-05-08 01:31 12.18604 -68.95643 45 ft 17 kts 298°
2026-05-08 01:31 12.18667 -68.95786 45 ft 27 kts 288°
2026-05-08 01:31 12.18695 -68.95895 45 ft 10 kts 283°
2026-05-08 01:32 12.18714 -68.95981 42 ft 14 kts 281°
2026-05-08 01:32 12.18734 -68.96090 45 ft 17 kts 281°
2026-05-08 01:32 12.18759 -68.96219 43 ft 20 kts 282°
2026-05-08 01:32 12.18791 -68.96365 45 ft 22 kts 283°
2026-05-08 01:33 12.18827 -68.96531 42 ft 25 kts 282°
2026-05-08 01:33 12.18865 -68.96717 44 ft 28 kts 282°
2026-05-08 01:33 12.18908 -68.96915 43 ft 27 kts 283°
2026-05-08 01:33 12.18950 -68.97110 43 ft 29 kts 281°
2026-05-08 01:34 12.18989 -68.97309 42 ft 28 kts 282°
2026-05-08 01:34 12.19022 -68.97462 42 ft 14 kts 284°
2026-05-08 01:34 12.19044 -68.97563 41 ft 15 kts 282°
2026-05-08 01:34 12.19063 -68.97634 40 ft 9 kts 301°
2026-05-08 01:35 12.19124 -68.97644 42 ft 10 kts 12°
2026-05-08 01:35 12.19188 -68.97607 42 ft 12 kts 60°
2026-05-08 01:35 12.19218 -68.97524 40 ft 13 kts 81°
2026-05-08 01:35 12.19209 -68.97478 42 ft 0 kts 107°
2026-05-08 01:37 12.19175 -68.97335 43 ft 60 kts 101°
2026-05-08 01:37 12.19034 -68.96647 45 ft 134 kts 101°
2026-05-08 01:37 12.18771 -68.95575 383 ft 166 kts 107°
2026-05-08 01:37 12.18392 -68.94437 1097 ft 173 kts 107°
2026-05-08 01:38 12.18033 -68.93288 2115 ft 169 kts 102°
2026-05-08 01:38 12.17834 -68.92032 2603 ft 191 kts 97°
2026-05-08 01:38 12.17610 -68.90580 3031 ft 223 kts 99°
2026-05-08 01:38 12.17435 -68.88966 3873 ft 227 kts 94°
2026-05-08 01:39 12.17323 -68.87304 4683 ft 243 kts 94°
2026-05-08 01:39 12.17185 -68.85527 5412 ft 257 kts 94°
2026-05-08 01:39 12.17034 -68.83692 6376 ft 261 kts 95°
2026-05-08 01:39 12.16874 -68.81837 7319 ft 263 kts 96°
2026-05-08 01:40 12.16707 -68.79964 8286 ft 264 kts 96°
2026-05-08 01:40 12.16538 -68.78070 9121 ft 272 kts 96°
2026-05-08 01:40 12.16360 -68.76119 9920 ft 280 kts 96°
2026-05-08 01:40 12.16178 -68.74106 10555 ft 292 kts 95°
2026-05-08 01:41 12.15984 -68.71970 10937 ft 312 kts 95°
2026-05-08 01:41 12.15775 -68.69693 11238 ft 332 kts 94°
2026-05-08 01:41 12.15557 -68.67316 11610 ft 347 kts 94°
2026-05-08 01:41 12.15330 -68.64833 12257 ft 351 kts 93°
2026-05-08 01:42 12.15102 -68.62346 13003 ft 355 kts 93°
2026-05-08 01:42 12.14868 -68.59804 13532 ft 363 kts 93°
2026-05-08 01:42 12.14631 -68.57231 14205 ft 364 kts 92°
2026-05-08 01:42 12.14394 -68.54643 14800 ft 367 kts 92°
2026-05-08 01:43 12.14152 -68.52025 15318 ft 373 kts 93°
2026-05-08 01:43 12.13908 -68.49373 15870 ft 376 kts 92°
2026-05-08 01:43 12.13663 -68.46705 16449 ft 379 kts 93°
2026-05-08 01:43 12.13419 -68.44010 16960 ft 383 kts 94°
2026-05-08 01:44 12.13170 -68.41281 17466 ft 387 kts 93°
2026-05-08 01:44 12.12920 -68.38540 18052 ft 388 kts 92°
2026-05-08 01:44 12.12669 -68.35776 18455 ft 394 kts 93°
2026-05-08 01:44 12.12412 -68.32975 18882 ft 397 kts 94°
2026-05-08 01:45 12.12156 -68.30164 19360 ft 398 kts 93°
2026-05-08 01:45 12.11899 -68.27335 19751 ft 402 kts 93°
2026-05-08 01:45 12.11635 -68.24466 20121 ft 406 kts 92°
2026-05-08 01:45 12.11374 -68.21629 20581 ft 407 kts 92°
2026-05-08 01:46 12.11109 -68.18732 20942 ft 412 kts 94°
2026-05-08 01:46 12.10840 -68.15798 21240 ft 417 kts 93°
2026-05-08 01:46 12.10567 -68.12840 21689 ft 419 kts 92°
2026-05-08 01:46 12.10294 -68.09863 22019 ft 423 kts 93°
2026-05-08 01:47 12.10016 -68.06853 22387 ft 426 kts 92°
2026-05-08 01:47 12.09737 -68.03831 22771 ft 429 kts 94°
2026-05-08 01:47 12.09456 -68.00786 23105 ft 433 kts 94°
2026-05-08 01:48 12.08886 -67.94622 23762 ft 438 kts 92°
2026-05-08 01:48 12.08599 -67.91514 24055 ft 441 kts 93°
2026-05-08 01:48 12.08306 -67.88386 24353 ft 443 kts 92°
2026-05-08 01:48 12.08015 -67.85243 24628 ft 446 kts 92°
2026-05-08 01:49 12.07495 -67.82109 24907 ft 451 kts 104°
2026-05-08 01:49 12.06525 -67.79053 25241 ft 453 kts 104°
2026-05-08 01:49 12.05583 -67.75964 25425 ft 458 kts 105°
2026-05-08 01:49 12.04620 -67.72860 25793 ft 458 kts 105°
2026-05-08 01:50 12.03646 -67.69747 26073 ft 461 kts 105°
2026-05-08 01:50 12.02663 -67.66615 26338 ft 464 kts 105°
2026-05-08 01:50 12.01677 -67.63467 26612 ft 467 kts 105°
2026-05-08 01:50 12.00683 -67.60304 26920 ft 468 kts 105°
2026-05-08 01:51 11.99700 -67.57173 27205 ft 470 kts 106°
2026-05-08 01:51 11.98693 -67.53980 27438 ft 474 kts 105°
2026-05-08 01:51 11.97686 -67.50767 27747 ft 475 kts 105°
2026-05-08 01:51 11.96675 -67.47550 28030 ft 477 kts 105°
2026-05-08 01:52 11.95659 -67.44318 28305 ft 480 kts 105°
2026-05-08 01:52 11.94633 -67.41064 28554 ft 482 kts 105°
2026-05-08 01:52 11.93604 -67.37802 28846 ft 484 kts 105°
2026-05-08 01:52 11.92570 -67.34524 29122 ft 486 kts 105°
2026-05-08 01:53 11.91530 -67.31230 29361 ft 488 kts 105°
2026-05-08 01:53 11.90484 -67.27921 29624 ft 490 kts 105°
2026-05-08 01:53 11.89434 -67.24598 29878 ft 492 kts 105°
2026-05-08 01:53 11.88381 -67.21264 30120 ft 494 kts 105°
2026-05-08 01:54 11.87325 -67.17924 30349 ft 495 kts 105°
2026-05-08 01:54 11.86266 -67.14579 30627 ft 495 kts 106°
2026-05-08 01:54 11.85205 -67.11226 30921 ft 495 kts 105°
2026-05-08 01:54 11.84164 -67.07931 31188 ft 495 kts 106°
2026-05-08 01:55 11.83102 -67.04580 31438 ft 496 kts 106°
2026-05-08 01:55 11.82041 -67.01230 31744 ft 496 kts 106°
2026-05-08 01:55 11.80980 -66.97881 32032 ft 496 kts 106°
2026-05-08 01:55 11.79920 -66.94537 32312 ft 496 kts 106°
2026-05-08 01:56 11.78857 -66.91189 32603 ft 496 kts 106°
2026-05-08 01:56 11.77826 -66.87833 32911 ft 495 kts 106°
2026-05-08 01:56 11.76805 -66.84471 33163 ft 496 kts 107°
2026-05-08 01:56 11.75777 -66.81101 33377 ft 498 kts 107°
2026-05-08 01:57 11.74748 -66.77732 33667 ft 497 kts 107°
2026-05-08 01:57 11.73718 -66.74363 33964 ft 497 kts 107°
2026-05-08 01:57 11.72690 -66.70999 34213 ft 497 kts 107°
2026-05-08 01:57 11.71661 -66.67636 34459 ft 497 kts 107°
2026-05-08 01:58 11.70633 -66.64277 34708 ft 496 kts 107°
2026-05-08 01:58 11.69606 -66.60918 34976 ft 495 kts 107°
2026-05-08 01:58 11.68584 -66.57567 35235 ft 494 kts 107°
2026-05-08 01:58 11.67560 -66.54213 35471 ft 495 kts 107°
2026-05-08 01:59 11.66538 -66.50865 35696 ft 495 kts 107°
2026-05-08 01:59 11.65516 -66.47517 35925 ft 494 kts 107°
2026-05-08 01:59 11.64494 -66.44172 36153 ft 494 kts 107°
2026-05-08 01:59 11.63470 -66.40823 36383 ft 494 kts 107°
2026-05-08 02:00 11.62449 -66.37484 36606 ft 494 kts 107°
2026-05-08 02:00 11.61438 -66.34180 36819 ft 493 kts 107°
2026-05-08 02:00 11.60416 -66.30842 36997 ft 494 kts 107°
2026-05-08 02:00 11.59393 -66.27500 37016 ft 494 kts 107°
2026-05-08 02:01 11.57350 -66.20835 37005 ft 492 kts 107°
2026-05-08 02:01 11.55307 -66.14174 36998 ft 492 kts 107°
2026-05-08 02:02 11.53264 -66.07515 36998 ft 492 kts 107°
2026-05-08 02:02 11.51216 -66.00847 36997 ft 492 kts 107°
2026-05-08 02:03 11.49170 -65.94190 37000 ft 492 kts 107°
2026-05-08 02:03 11.47121 -65.87529 37000 ft 492 kts 107°
2026-05-08 02:04 11.45073 -65.80875 36999 ft 492 kts 108°
2026-05-08 02:04 11.43020 -65.74219 37002 ft 492 kts 108°
2026-05-08 02:05 11.40967 -65.67568 36997 ft 492 kts 108°
2026-05-08 02:05 11.38909 -65.60911 36999 ft 492 kts 108°
2026-05-08 02:06 11.36850 -65.54254 36993 ft 493 kts 108°
2026-05-08 02:06 11.34789 -65.47595 36993 ft 493 kts 108°
2026-05-08 02:07 11.32725 -65.40935 36996 ft 493 kts 108°
2026-05-08 02:07 11.30659 -65.34274 36982 ft 493 kts 108°
2026-05-08 02:08 11.28589 -65.27605 36997 ft 495 kts 109°
2026-05-08 02:08 11.26519 -65.20942 36999 ft 497 kts 109°
2026-05-08 02:09 11.24432 -65.14229 36997 ft 497 kts 109°
2026-05-08 02:09 11.22344 -65.07519 36996 ft 497 kts 109°
2026-05-08 02:10 11.20255 -65.00812 36991 ft 497 kts 109°
2026-05-08 02:10 11.18163 -64.94102 36986 ft 498 kts 110°
2026-05-08 02:11 11.16066 -64.87379 36992 ft 498 kts 110°
2026-05-08 02:11 11.13966 -64.80655 36991 ft 498 kts 110°
2026-05-08 02:12 11.12219 -64.75066 36991 ft 498 kts 110°
2026-05-08 02:12 11.10118 -64.68347 36993 ft 498 kts 110°
2026-05-08 02:13 11.07819 -64.60478 36994 ft 499 kts 105°
2026-05-08 02:13 11.06418 -64.54724 36994 ft 500 kts 106°
2026-05-08 02:14 11.04702 -64.47915 36996 ft 499 kts 107°
2026-05-08 02:14 11.02966 -64.41068 36997 ft 499 kts 107°
2026-05-08 02:15 11.01229 -64.34226 36998 ft 499 kts 107°
2026-05-08 02:15 10.99486 -64.27369 37004 ft 500 kts 107°
2026-05-08 02:16 10.97742 -64.20513 36998 ft 500 kts 107°
2026-05-08 02:16 10.96000 -64.13669 37001 ft 500 kts 107°
2026-05-08 02:17 10.94254 -64.06821 36999 ft 500 kts 107°
2026-05-08 02:17 10.92518 -64.00015 37002 ft 500 kts 107°
2026-05-08 02:18 10.91007 -63.93107 37012 ft 501 kts 102°
2026-05-08 02:18 10.89742 -63.86131 37000 ft 501 kts 103°
2026-05-08 02:19 10.88427 -63.79164 37006 ft 501 kts 103°
2026-05-08 02:19 10.87106 -63.72199 37012 ft 501 kts 103°
2026-05-08 02:20 10.85785 -63.65238 37007 ft 501 kts 103°
2026-05-08 02:20 10.84462 -63.58279 37009 ft 501 kts 103°
2026-05-08 02:21 10.83138 -63.51323 37011 ft 501 kts 103°
2026-05-08 02:21 10.81813 -63.44366 37011 ft 501 kts 103°
2026-05-08 02:22 10.80485 -63.37413 37012 ft 501 kts 104°
2026-05-08 02:22 10.79159 -63.30470 36401 ft 499 kts 104°
2026-05-08 02:23 10.78488 -63.26963 35183 ft 512 kts 104°
2026-05-08 02:23 10.77809 -63.23411 34598 ft 509 kts 104°
2026-05-08 02:23 10.77136 -63.19895 34070 ft 506 kts 104°
2026-05-08 02:23 10.76464 -63.16383 33313 ft 506 kts 104°
2026-05-08 02:24 10.75796 -63.12866 32555 ft 507 kts 104°
2026-05-08 02:24 10.75127 -63.09347 31809 ft 507 kts 104°
2026-05-08 02:24 10.74465 -63.05867 31088 ft 507 kts 104°
2026-05-08 02:24 10.73795 -63.02344 30332 ft 508 kts 104°
2026-05-08 02:25 10.73124 -62.98816 29519 ft 508 kts 104°
2026-05-08 02:25 10.72453 -62.95288 28611 ft 509 kts 104°
2026-05-08 02:25 10.71777 -62.91742 27664 ft 511 kts 104°
2026-05-08 02:25 10.71101 -62.88194 26739 ft 512 kts 103°
2026-05-08 02:26 10.70422 -62.84639 25838 ft 513 kts 103°
2026-05-08 02:26 10.69743 -62.81083 25091 ft 510 kts 103°
2026-05-08 02:26 10.69070 -62.77557 24437 ft 506 kts 103°
2026-05-08 02:26 10.68403 -62.74070 23827 ft 500 kts 103°
2026-05-08 02:27 10.67742 -62.70612 23167 ft 495 kts 103°
2026-05-08 02:27 10.67087 -62.67191 22518 ft 490 kts 103°
2026-05-08 02:27 10.66441 -62.63817 21892 ft 484 kts 102°
2026-05-08 02:27 10.65801 -62.60478 21265 ft 479 kts 102°
2026-05-08 02:28 10.65167 -62.57169 20670 ft 473 kts 102°
2026-05-08 02:28 10.64540 -62.53901 20078 ft 468 kts 102°
2026-05-08 02:28 10.63921 -62.50672 19537 ft 463 kts 101°
2026-05-08 02:28 10.63306 -62.47472 18970 ft 459 kts 101°
2026-05-08 02:29 10.62696 -62.44305 18431 ft 454 kts 101°
2026-05-08 02:29 10.62093 -62.41167 17859 ft 449 kts 101°
2026-05-08 02:29 10.61497 -62.38069 17245 ft 445 kts 100°
2026-05-08 02:29 10.60913 -62.35037 16701 ft 440 kts 100°
2026-05-08 02:30 10.60329 -62.32008 16208 ft 433 kts 99°
2026-05-08 02:30 10.59754 -62.29026 15720 ft 427 kts 99°
2026-05-08 02:30 10.59188 -62.26090 15243 ft 421 kts 99°
2026-05-08 02:30 10.58629 -62.23191 14772 ft 415 kts 99°
2026-05-08 02:31 10.58078 -62.20332 14306 ft 409 kts 99°
2026-05-08 02:31 10.57534 -62.17514 13856 ft 404 kts 99°
2026-05-08 02:31 10.56996 -62.14733 13351 ft 399 kts 99°
2026-05-08 02:31 10.56465 -62.11988 12876 ft 393 kts 99°
2026-05-08 02:32 10.55940 -62.09276 12426 ft 388 kts 99°
2026-05-08 02:32 10.55423 -62.06601 12005 ft 383 kts 99°
2026-05-08 02:32 10.54912 -62.03964 11644 ft 377 kts 99°
2026-05-08 02:32 10.54413 -62.01383 11405 ft 367 kts 99°
2026-05-08 02:33 10.53925 -61.98869 11188 ft 358 kts 99°
2026-05-08 02:33 10.53452 -61.96424 10999 ft 348 kts 99°
2026-05-08 02:33 10.52990 -61.94040 10830 ft 338 kts 99°
2026-05-08 02:33 10.52541 -61.91728 10677 ft 329 kts 99°
2026-05-08 02:34 10.52111 -61.89509 10538 ft 319 kts 100°
2026-05-08 02:34 10.51779 -61.87318 10394 ft 308 kts 88°
2026-05-08 02:34 10.52132 -61.85224 10320 ft 294 kts 76°
2026-05-08 02:34 10.52573 -61.83235 10146 ft 284 kts 76°
2026-05-08 02:35 10.52998 -61.81303 9976 ft 277 kts 77°
2026-05-08 02:35 10.53419 -61.79402 9667 ft 277 kts 76°
2026-05-08 02:35 10.53849 -61.77476 9191 ft 281 kts 77°
2026-05-08 02:35 10.54284 -61.75525 8711 ft 284 kts 76°
2026-05-08 02:36 10.54722 -61.73564 8238 ft 286 kts 77°
2026-05-08 02:36 10.55165 -61.71584 7777 ft 289 kts 76°
2026-05-08 02:36 10.55607 -61.69602 7299 ft 286 kts 76°
2026-05-08 02:36 10.56043 -61.67649 6848 ft 281 kts 77°
2026-05-08 02:37 10.56472 -61.65730 6404 ft 276 kts 77°
2026-05-08 02:37 10.56894 -61.63838 5934 ft 272 kts 77°
2026-05-08 02:37 10.57310 -61.61976 5467 ft 268 kts 77°
2026-05-08 02:37 10.57719 -61.60138 5007 ft 265 kts 77°
2026-05-08 02:38 10.58125 -61.58320 4539 ft 262 kts 76°
2026-05-08 02:38 10.58525 -61.56524 4117 ft 258 kts 77°
2026-05-08 02:38 10.58911 -61.54793 4041 ft 248 kts 76°
2026-05-08 02:38 10.59291 -61.53087 3970 ft 248 kts 76°
2026-05-08 02:39 10.59510 -61.51384 3727 ft 240 kts 89°
2026-05-08 02:39 10.59503 -61.49709 3368 ft 235 kts 89°
2026-05-08 02:39 10.59500 -61.48076 3082 ft 227 kts 88°
2026-05-08 02:39 10.59500 -61.46502 2793 ft 219 kts 88°
2026-05-08 02:40 10.59503 -61.44983 2524 ft 210 kts 87°
2026-05-08 02:40 10.59506 -61.43560 2283 ft 192 kts 88°
2026-05-08 02:40 10.59510 -61.42277 2097 ft 170 kts 88°
2026-05-08 02:40 10.59508 -61.41130 1798 ft 158 kts 88°
2026-05-08 02:41 10.59492 -61.40050 1370 ft 151 kts 88°
2026-05-08 02:41 10.59505 -61.38994 1057 ft 150 kts 87°
2026-05-08 02:41 10.59531 -61.37922 760 ft 152 kts 88°
2026-05-08 02:41 10.59539 -61.36896 478 ft 142 kts 92°
2026-05-08 02:42 10.59525 -61.35899 291 ft 143 kts 89°
2026-05-08 02:42 10.59532 -61.34886 82 ft 141 kts 91°
2026-05-08 02:42 10.59535 -61.33977 51 ft 114 kts 89°
2026-05-08 02:42 10.59537 -61.33377 50 ft 54 kts 89°
2026-05-08 02:43 10.59539 -61.33084 50 ft 21 kts 89°
2026-05-08 02:43 10.59564 -61.32967 48 ft 13 kts 31°
2026-05-08 02:43 10.59634 -61.32954 52 ft 10 kts
2026-05-08 02:43 10.59712 -61.32978 50 ft 14 kts 326°
2026-05-08 02:44 10.59726 -61.33052 52 ft 13 kts 248°
2026-05-08 02:44 10.59706 -61.33160 51 ft 19 kts 269°
2026-05-08 02:44 10.59707 -61.33317 52 ft 25 kts 270°
2026-05-08 02:44 10.59708 -61.33514 52 ft 27 kts 270°
2026-05-08 02:45 10.59707 -61.33671 52 ft 21 kts 269°
2026-05-08 02:45 10.59754 -61.33732 52 ft 12 kts 348°
2026-05-08 02:45 10.59851 -61.33737 52 ft 11 kts 359°
2026-05-08 02:45 10.59909 -61.33764 47 ft 7 kts 310°
2026-05-08 02:46 10.59938 -61.33801 52 ft 6 kts 307°
2026-05-08 02:46 10.59948 -61.33814 52 ft 2 kts 305°
2026-05-08 02:46 10.59950 -61.33816 48 ft 0 kts 306°